TELLUMGE Weather Reports


time (UTC)temp
C
wind
direction
speed
KPH
gust
KPH
rain 1hr
cm
rain 24hr
cm
rain mn
cm
humidity
%
barometer
mb
20260503003009 25 154 0.0 6.4 0.00 0.00 0.00 81 1017.1
20260503001511 25 69 1.6 9.7 0.00 0.00 0.00 81 1017.4
20260502234525 26 63 1.6 9.7 0.00 0.00 0.00 78 1017.4
20260502233008 25 305 0.0 8.0 0.00 0.00 0.00 79 1017.4
20260502231508 25 211 0.0 8.0 0.00 0.00 0.00 80 1017.5
20260502230014 24 316 1.6 6.4 0.00 0.00 0.00 82 1017.4
20260502224517 23 112 1.6 9.7 0.00 0.00 0.00 83 1017.3
20260502223032 23 63 1.6 9.7 0.00 0.00 0.00 84 1017.1
20260502221506 23 75 0.0 6.4 0.00 0.00 0.00 85 1017.0
20260502220008 22 73 0.0 3.2 0.00 0.00 0.00 86 1016.8
20260502214511 22 12 0.0 4.8 0.00 0.00 0.00 87 1016.7
20260502213015 21 73 1.6 6.4 0.00 0.00 0.00 87 1016.4
20260502211523 20 63 1.6 8.0 0.00 0.00 0.00 89 1016.3
20260502210007 20 63 3.2 9.7 0.00 0.00 0.00 89 1016.1
20260502204513 20 70 1.6 4.8 0.00 0.00 0.00 89 1015.9
20260502203017 20 87 1.6 6.4 0.00 0.00 0.00 89 1015.7
20260502201518 20 58 1.6 9.7 0.00 0.00 0.00 88 1015.5
20260502200022 20 53 3.2 11.3 0.00 0.00 0.00 88 1015.4
20260502194521 20 86 3.2 11.3 0.00 0.00 0.00 88 1015.4
20260502193012 20 37 1.6 6.4 0.00 0.00 0.00 88 1015.4
20260502191520 20 86 1.6 6.4 0.00 0.00 0.00 88 1015.4
20260502190025 20 91 1.6 8.0 0.00 0.00 0.00 89 1015.4
20260502184524 20 65 1.6 6.4 0.00 0.00 0.00 89 1015.4
20260502183027 20 77 1.6 4.8 0.00 0.00 0.00 88 1015.3
20260502181527 20 77 0.0 8.0 0.00 0.00 0.00 88 1015.3
20260502163008 20 84 0.0 4.8 0.00 0.00 0.00 88 1015.8
20260502161505 20 47 1.6 9.7 0.00 0.00 0.00 86 1015.9
20260502151517 20 107 3.2 6.4 0.00 0.00 0.00 86 1016.4
20260502123022 20 75 0.0 4.8 0.00 0.00 0.00 86 1017.5
20260502121509 20 75 0.0 4.8 0.00 0.00 0.00 85 1017.6
20260502114508 21 77 0.0 8.0 0.00 0.00 0.00 85 1017.9
20260502113006 21 23 3.2 14.5 0.00 0.00 0.00 85 1017.9
20260502111511 21 33 0.0 4.8 0.00 0.00 0.00 87 1017.9
20260502110017 21 43 0.0 6.4 0.00 0.00 0.00 87 1017.8
20260502104509 21 25 0.0 8.0 0.00 0.00 0.00 88 1017.9
20260502103012 21 81 1.6 9.7 0.00 0.00 0.00 89 1017.9
20260502101512 21 77 1.6 9.7 0.00 0.00 0.00 89 1017.8
20260502091512 21 137 0.0 4.8 0.00 0.00 0.00 88 1016.9
20260502071504 22 86 0.0 4.8 0.00 0.00 0.00 86 1015.8
20260502070005 23 140 0.0 6.4 0.00 0.00 0.00 86 1015.7
20260502064507 23 140 0.0 4.8 0.00 0.00 0.00 85 1015.5
20260502063006 23 106 0.0 11.3 0.00 0.00 0.00 84 1015.4
20260502061530 24 212 0.0 4.8 0.00 0.00 0.00 84 1015.4
20260502060006 24 248 1.6 6.4 0.00 0.00 0.00 82 1015.3
20260502054505 25 217 0.0 3.2 0.00 0.00 0.00 82 1015.4
20260502053008 25 242 1.6 6.4 0.00 0.00 0.00 80 1015.4
20260502051521 25 129 0.0 8.0 0.00 0.00 0.00 80 1015.5
20260502050018 25 98 1.6 6.4 0.00 0.00 0.00 79 1015.5
20260502044505 25 102 0.0 4.8 0.00 0.00 0.00 79 1015.5
20260502043006 26 350 0.0 4.8 0.00 0.00 0.00 80 1015.6
20260502041519 26 181 0.0 9.7 0.00 0.00 0.00 77 1015.7
20260502040015 26 115 1.6 4.8 0.00 0.00 0.00 76 1015.8
20260502034517 26 71 1.6 6.4 0.00 0.00 0.00 74 1016.0
20260502033004 26 231 0.0 6.4 0.00 0.00 0.00 76 1016.1
20260502031506 27 115 0.0 1.6 0.00 0.00 0.00 74 1016.3
20260502030010 26 269 1.6 6.4 0.00 0.00 0.00 76 1016.5
20260502024515 26 57 0.0 6.4 0.00 0.00 0.00 76 1016.7
20260502023019 26 265 0.0 9.7 0.00 0.00 0.00 78 1017.0
20260502021520 26 120 1.6 6.4 0.00 0.00 0.00 75 1017.3
20260502020008 26 143 0.0 6.4 0.00 0.00 0.00 76 1017.5
20260502014509 26 201 1.6 8.0 0.00 0.00 0.00 75 1017.7
20260502013016 26 29 0.0 8.0 0.00 0.00 0.00 76 1017.9
20260502011523 26 264 1.6 6.4 0.00 0.00 0.00 76 1018.0